Preview of NWS' New Version of Forecast
This preview is not operational and should not be used for support decisions.

Regional Weather Roundup (RWR)

Issued by National Weather Service (NWS)

                            
000
ASUS43 KBIS 200810
RWRND 

NORTH DAKOTA REGIONAL WEATHER ROUNDUP
NATIONAL WEATHER SERVICE BISMARCK ND
300 AM CDT TUE AUG 20 2019

NOTE: "FAIR" INDICATES FEW OR NO CLOUDS BELOW 12,000 FEET WITH NO
SIGNIFICANT WEATHER AND/OR OBSTRUCTIONS TO VISIBILITY.


NDZ001>003-009>011-017-200900-
NORTHWEST NORTH DAKOTA
  
CITY           SKY/WX    TMP DP  RH WIND       PRES   REMARKS
WILLISTON      PTCLDY    60  52  74 N14       30.01R                  
MINOT          CLEAR     60  52  74 NW15G25   29.89R                  
MINOT AFB      CLEAR     60  52  75 N14       29.89R                  
$$
 
NDZ018>021-031>035-040>046-200900-
SOUTHWEST NORTH DAKOTA
  
CITY           SKY/WX    TMP DP  RH WIND       PRES   REMARKS
BISMARCK       CLEAR     71  69  93 W6        29.87R                  
DICKINSON      CLEAR     58  50  75 NW9       29.96R                  
GARRISON         N/A     62  56  80 NW14      29.88R                  
HETTINGER ARPT CLEAR     53  50  89 W5        29.98R                  
$$
 
NDZ004>008-012>016-024-026-027-054-200900-
NORTHEAST NORTH DAKOTA
  
CITY           SKY/WX    TMP DP  RH WIND       PRES   REMARKS
GRAND FORKS    LGT RAIN  71  66  84 SW15      29.80F                  
GRND FRKS AFB  TSTM      67  65  93 SW12      29.79F                  
DEVILS LAKE    MOCLDY    65  62  90 SE9       29.82S                  
$$
 
NDZ022-023-025-028>030-036>039-047>053-200900-
SOUTHEAST NORTH DAKOTA
  
CITY           SKY/WX    TMP DP  RH WIND       PRES   REMARKS
FARGO          CLOUDY    71  67  87 S12       29.83F                  
JAMESTOWN      CLEAR     71  69  93 S8        29.82F                  
$$